Tracking 35030 objects as of 9-Aug-2026
HD Live streaming from Space Station
objects crossing your sky now

LEASAT 4

Track LEASAT 4 now!
LEASAT 4 is classified as:


NORAD ID: 15995
Int'l Code: 1985-076D
Launch date: August 27, 1985
Source: United States (US)
Launch site: AIR FORCE EASTERN TEST RANGE (AFETR)
Your satellite tracking list
Your tracking list is empty




NASA's NSSDC Master Catalog

Two Line Element Set (TLE):
1 15995U 85076D   26220.66550895 -.00000152  00000-0  00000-0 0  9990
2 15995  10.0056 330.4703 0006391 330.8566  28.6408  0.97800178118641
Source of the keplerian elements: AFSPC